loading
DOY 203 | 2024-07-21T11:24:50Z
Showing default

MOLNIYA 2-10, 7376

Orbit data source: Space-Track

MOLNIYA 2-10, 7376 is a payload satellite owned by GUKOS RVSN (CIS) that was launched on Tue, 23 Jul 1974 UTC via a Molniya 8K78M launch vehicle from the Plesetsk Missile And Space Complex (PKMTR). Payloads include a variety of satellites, spacecraft, and rockets equipped with specific instruments for various scientific and technological missions. These include communications satellites like Starlink; space stations such as the ISS; scientific satellites like the Hubble; Earth observation satellites from companies like Planet Labs, Umbra, and HawkEye 360; GPS; miniature CubeSats for education and research; and military/defense satellites.

Loading next visibility...
Loading greatness...
MOLNIYA 2-10 details
NORAD ID7376
COSPAR ID
1974-056A
Orbit
Molniya
Last TLE update5 days ago
Origin
Flag of CISGUKOS RVSN (CIS)
ManufacturerOKB-10
BusMolniya-2
MotorUnknown
Mass~1,650 kg wet, ~1,620 kg dry
Launch date (UTC)
1974-07-23 (50 years ago)
Launch vehicle
Molniya 8K78M
Launch site
Plesetsk Missile And Space Complex (PKMTR)
Object type
Payload
Rocket body
Debris
Radar Cross Section14 m², Large (>1 m²)
Predictive object data (real-time)
Latitude45.86924°
Longitude178.54472°
Altitude28,776.442 km
Speed2.765 km/s
Apparent Right ascension11h 12m 50s
Apparent Declination35° 59' 08"
Sunlit
Object is in daylight
Predictive observer data (real-time)
Local Sidereal Time00:23:15
Azimuth14.509° NNE
Elevation-12.388°
Doppler factor1
Orbital elements
Apogee38,274.704 km
Perigee1,984.737 km
Semi-major axis26,507.857 km
Eccentricity0.6845134
Inclination65.2189°
RAAN13.7348°
Arg. of periapsis278.9267°
True anomaly80.98773°
Mean anomaly15.0587°
Mean motion0.5029 °/min
BSTARUnknown
Period715.85 mins
Definitive object data (Epoch: 2024-07-16T03:26:55.468Z)
Latitude0.0002°
Longitude27.53693°
Altitude6,344.566 km
Speed6.901 km/s
True Right ascension00h 54m 56s
True Declination0° 00' 01"
Sunlit
Object was in daylight at TLE epoch
TLE from 5 days ago
0 MOLNIYA 2-10
1 07376U 74056A   24198.14369755  .00000988  00000-0  00000-0 0  9994
2 07376  65.2189  13.7348 6845134 278.9267  15.0587  2.01148271365639
Epoch: 2024-07-16T03:26Z
No data available

MOLNIYA 2-10 Visibility forecast

Observer location: 39.9160978°, -105.1181434

MOLNIYA 2-10 is not visible in the next 10 days
Span
Click to sort rows by Start time (UTC) header in descending order
Start Az.
Max El. time (UTC)
Max El. Az.
Max El.
End time (UTC)
End Az.